#timestamp,LO_Frequency,Hit,StdDev 
1581394815.9,286047029.1,P
1581394835.7,286047028.6,P
1581394855.5,286047031.3,P
1581394875.4,286047031.3,Y
1581394895.2,286047002.6,P
1581394915.1,286047002.1,N
1581394916.0,286047002.1,N
1581394935.8,286047002.7,N
1581394955.6,286047002.4,N
1581394975.5,286047002.5,N
1581394995.3,286047001.4,N
1581395015.2,286047004.3,N
1581395035.9,286047003.7,N
1581395055.7,286047003.1,N
1581395075.6,286047003.2,N
1581395095.4,286047002.9,N
1581395115.2,286047006.0,N
1581395135.1,286047005.7,N
1581395136.0,286047005.7,N
1581395155.8,286047004.5,N
1581395175.7,286047005.6,N
1581395195.5,286047005.2,N
1581395215.3,286047004.8,N
1581395235.2,286047007.2,N
1581395255.0,286047007.4,N
1581395255.9,286047007.4,N
1581395275.7,286047006.3,N
1581395295.6,286047006.6,N
1581395315.4,286047006.8,N
1581395335.3,286047009.1,N
1581395355.1,286047006.3,N
1581395356.0,286047006.3,N
1581395375.8,286047007.8,N
1581395395.7,286047007.9,N
1581395415.5,286047007.8,Y
1581395435.4,286047005.8,P
1581395455.2,286047002.9,P
1581395475.0,286047005.4,P
1581395475.9,286047005.4,Y
1581395495.8,286047000.1,P
1581395515.6,286047000.8,N
1581395535.4,286046999.8,N
1581395555.3,286047002.8,N
1581395575.1,286046999.9,N
1581395595.9,286047002.7,N
1581395615.7,286047000.3,N
1581395635.5,286047002.7,N
1581395655.4,286047000.3,N
1581395675.2,286047002.8,N
1581395695.0,286047002.2,N
1581395695.9,286047002.2,N
1581395715.8,286047001.6,N
1581395735.6,286047002.2,N
1581395755.5,286047004.4,Y
1581395775.3,286047000.1,P
1581395795.1,286047001.9,N
1581395815.9,286047002.0,N
1581395835.7,286047002.2,N
1581395855.6,286047002.0,N
1581395875.4,286047004.3,Y
1581395895.2,286047001.5,P
1581395915.1,286047001.7,P
1581395916.0,286047001.7,P
1581395935.8,286047002.5,Y
1581395955.7,286047000.5,P
1581395975.5,286047002.8,P
1581395995.3,286047002.7,N
1581396015.2,286047002.8,N
1581396035.0,286047002.0,N
1581396035.9,286047002.0,N
1581396055.7,286047001.5,N
1581396075.6,286047004.0,Y
1581396095.4,286047000.5,P
1581396115.3,286047000.3,N
1581396135.1,286047000.2,N
1581396155.8,286047002.6,Y
1581396175.7,286047002.7,P
1581396195.5,286047002.2,N
1581396215.4,286047002.2,N
1581396235.2,286047002.1,N
1581396255.0,286047002.8,Y
1581396255.9,286047002.8,P
1581396275.8,286046999.8,N
1581396295.6,286047001.1,N
1581396315.5,286046999.8,N
1581396335.3,286047002.6,N
1581396355.1,286047000.2,N
1581396375.9,286047002.4,N
1581396395.7,286047002.2,N
1581396415.5,286047002.6,N
1581396435.4,286047002.3,N
1581396455.2,286047002.5,N
1581396475.0,286047002.7,N
1581396476.0,286047002.7,N
1581396495.8,286047002.6,N
1581396515.6,286047001.6,N
1581396535.5,286047004.1,Y
1581396555.3,286047002.0,P
1581396575.1,286047001.4,P
1581396595.9,286047004.3,P
1581396615.7,286047003.5,Y
1581396635.6,286047002.3,P
1581396655.4,286047002.4,P
1581396675.2,286047004.3,P
1581396695.1,286047003.5,Y
1581396696.0,286047003.5,P
1581396715.8,286046998.4,P
1581396735.7,286047001.2,N
1581396755.5,286047000.6,N
1581396775.3,286047000.8,N
1581396795.2,286046998.1,N
1581396815.0,286047000.2,N
1581396815.9,286047000.2,N
1581396835.7,286047002.4,N
1581396855.6,286047001.5,N
1581396875.4,286047004.4,N
1581396895.3,286047004.4,N
1581396915.1,286047001.8,N
1581396916.0,286047001.8,N
1581396935.8,286047004.3,N
1581396955.7,286047004.0,N
1581396975.5,286047001.9,N
1581396995.3,286047004.4,N
1581397015.2,286047005.5,N
1581397035.0,286047006.8,Y
1581397035.9,286047006.8,P
1581397055.8,286047003.3,N
1581397075.6,286047002.9,N
1581397095.4,286047003.0,N
1581397115.3,286047003.5,N
1581397135.1,286047007.2,Y
1581397155.9,286047003.4,P
1581397175.7,286047005.2,P
1581397195.5,286047005.1,P
